This demonstration page uses our WeatherBlox Daily Observations layout. Learn more.

Left ArrowRight Arrow

Hourly Observations for February 12, 2015

Temp ( °F °C ) Dew Point ( °F °C ) Humidity (%) Winds ( mph kmh ) Pressure ( in mb ) Visibility ( mi km ) Precip ( " mm )
12:15 am 00:15 Cloudy 27 -3 16 -9 64 64 NNE 16 26 30.59 1036 10 16 0.00 0.00
12:35 am 00:35 Cloudy 25 -4 16 -9 69 69 NNE 16 26 30.59 1036 10 16 0.00 0.00
12:55 am 00:55 Cloudy 25 -4 12 -11 59 59 NNE 18 30 30.62 1037 10 16 0.00 0.00
1:15 am 01:15 Cloudy 23 -5 12 -11 63 63 NNE 18 30 30.65 1038 10 16 0.00 0.00
1:35 am 01:35 Cloudy 23 -5 12 -11 63 63 N 18 30 30.65 1038 10 16 0.00 0.00
1:55 am 01:55 Cloudy 21 -6 12 -11 68 68 NNE 18 30 30.68 1039 10 16 0.00 0.00
2:15 am 02:15 Cloudy 21 -6 12 -11 68 68 NNE 17 28 30.68 1039 10 16 0.00 0.00
2:35 am 02:35 Cloudy 19 -7 10 -12 68 68 NE 21 33 30.68 1039 10 16 0.00 0.00
2:55 am 02:55 Cloudy 19 -7 12 -11 73 73 NNE 21 33 30.68 1039 10 16 0.00 0.00
3:15 am 03:15 Cloudy 18 -8 10 -12 73 73 NE 16 26 30.71 1040 10 16 0.00 0.00
3:35 am 03:35 Cloudy 18 -8 10 -12 73 73 NNE 13 20 30.71 1040 10 16 0.00 0.00
3:55 am 03:55 Cloudy 18 -8 10 -12 73 73 NE 13 20 30.71 1040 10 16 0.00 0.00
4:15 am 04:15 Cloudy 16 -9 9 -13 73 73 NE 12 19 30.74 1041 10 16 0.00 0.00
4:35 am 04:35 Cloudy 14 -10 9 -13 79 79 ENE 9 15 30.71 1040 10 16 0.00 0.00
4:55 am 04:55 Cloudy 12 -11 9 -13 85 85 NNE 10 17 30.74 1041 10 16 0.00 0.00
5:15 am 05:15 Cloudy 14 -10 9 -13 79 79 NE 13 20 30.77 1042 10 16 0.00 0.00
5:35 am 05:35 Cloudy 12 -11 7 -14 79 79 NE 10 17 30.77 1042 10 16 0.00 0.00
5:55 am 05:55 Cloudy 12 -11 5 -15 73 73 NE 12 19 30.77 1042 10 16 0.00 0.00
6:15 am 06:15 Cloudy 12 -11 7 -14 79 79 ENE 10 17 30.74 1041 10 16 0.00 0.00
6:35 am 06:35 Cloudy 12 -11 7 -14 79 79 ENE 10 17 30.74 1041 10 16 0.00 0.00
6:55 am 06:55 Cloudy 12 -11 7 -14 79 79 NE 9 15 30.74 1041 10 16 0.00 0.00
7:15 am 07:15 Cloudy 10 -12 5 -15 79 79 ENE 12 19 30.74 1041 10 16 0.00 0.00
7:35 am 07:35 Cloudy 10 -12 3 -16 72 72 ENE 9 15 30.74 1041 10 16 0.00 0.00
7:55 am 07:55 Cloudy 10 -12 1 -17 67 67 ENE 7 11 30.77 1042 10 16 0.00 0.00
8:15 am 08:15 Cloudy 12 -11 0 -18 57 57 ENE 7 11 30.77 1042 10 16 0.00 0.00
8:35 am 08:35 Cloudy 12 -11 0 -18 57 57 NE 6 9 30.77 1042 10 16 0.00 0.00
8:55 am 08:55 Cloudy 12 -11 -2 -19 52 52 ENE 7 11 30.74 1041 10 16 0.00 0.00
9:15 am 09:15 Cloudy 12 -11 -4 -20 48 48 E 6 9 30.74 1041 10 16 0.00 0.00
9:35 am 09:35 Mostly Cloudy 12 -11 -2 -19 52 52 ESE 5 7 30.74 1041 10 16 0.00 0.00
9:55 am 09:55 Sunny 14 -10 0 -18 52 52 ESE 6 9 30.71 1040 10 16 0.00 0.00
10:15 am 10:15 Partly Cloudy 14 -10 0 -18 52 52 E 5 7 30.71 1040 10 16 0.00 0.00
10:35 am 10:35 Mostly Sunny 14 -10 0 -18 52 52 ESE 5 7 30.71 1040 10 16 0.00 0.00
10:55 am 10:55 Partly Cloudy 16 -9 0 -18 48 48 SE 8 13 30.68 1039 10 16 0.00 0.00
11:15 am 11:15 Partly Cloudy 16 -9 1 -17 53 53 SSE 8 13 30.68 1039 10 16 0.00 0.00
11:35 am 11:35 Sunny 18 -8 1 -17 49 49 SSE 9 15 30.65 1038 10 16 0.00 0.00
11:55 am 11:55 Sunny 18 -8 1 -17 49 49 SSE 10 17 30.65 1038 10 16 0.00 0.00
12:15 pm 12:15 Sunny 19 -7 1 -17 45 45 S 7 11 30.62 1037 10 16 0.00 0.00
12:35 pm 12:35 Sunny 19 -7 1 -17 45 45 SSE 10 17 30.59 1036 10 16 0.00 0.00
12:55 pm 12:55 Sunny 19 -7 1 -17 45 45 SSE 12 19 30.56 1035 10 16 0.00 0.00
1:15 pm 13:15 Sunny 21 -6 1 -17 42 42 SSE 13 20 30.56 1035 10 16 0.00 0.00
1:35 pm 13:35 Sunny 21 -6 1 -17 42 42 S 10 17 30.53 1034 10 16 0.00 0.00
1:55 pm 13:55 Sunny 25 -4 1 -17 36 36 SSE 14 22 30.48 1032 10 16 0.00 0.00
2:15 pm 14:15 Sunny 25 -4 1 -17 36 36 S 14 22 30.48 1032 10 16 0.00 0.00
2:35 pm 14:35 Sunny 25 -4 1 -17 36 36 S 10 17 30.48 1032 10 16 0.00 0.00
2:55 pm 14:55 Sunny 25 -4 1 -17 36 36 SSW 15 24 30.45 1031 10 16 0.00 0.00
3:15 pm 15:15 Sunny 25 -4 3 -16 39 39 S 17 28 30.45 1031 10 16 0.00 0.00
3:35 pm 15:35 Sunny 25 -4 1 -17 36 36 S 17 28 30.42 1030 10 16 0.00 0.00
3:55 pm 15:55 Sunny 27 -3 1 -17 33 33 S 16 26 30.42 1030 10 16 0.00 0.00
4:15 pm 16:15 Sunny 27 -3 3 -16 36 36 S 17 28 30.42 1030 10 16 0.00 0.00
4:35 pm 16:35 Sunny 27 -3 1 -17 33 33 S 16 26 30.42 1030 10 16 0.00 0.00
4:55 pm 16:55 Sunny 27 -3 3 -16 36 36 S 17 28 30.42 1030 10 16 0.00 0.00
5:15 pm 17:15 Mostly Sunny 25 -4 3 -16 39 39 S 15 24 30.42 1030 10 16 0.00 0.00
5:35 pm 17:35 Mostly Cloudy 25 -4 5 -15 42 42 S 14 22 30.42 1030 10 16 0.00 0.00
5:55 pm 17:55 Cloudy 25 -4 5 -15 42 42 S 14 22 30.42 1030 10 16 0.00 0.00
6:15 pm 18:15 Cloudy 25 -4 7 -14 46 46 S 13 20 30.42 1030 10 16 0.00 0.00
6:35 pm 18:35 Cloudy 25 -4 7 -14 46 46 S 13 20 30.39 1029 10 16 0.00 0.00
6:55 pm 18:55 Mostly Cloudy 21 -6 7 -14 54 54 SSE 10 17 30.42 1030 10 16 0.00 0.00
7:15 pm 19:15 Mostly Clear 21 -6 7 -14 54 54 SSE 9 15 30.42 1030 10 16 0.00 0.00
7:35 pm 19:35 Clear 21 -6 7 -14 54 54 S 8 13 30.39 1029 10 16 0.00 0.00
7:55 pm 19:55 Clear 21 -6 7 -14 54 54 SSE 9 15 30.39 1029 10 16 0.00 0.00
8:15 pm 20:15 Clear 21 -6 9 -13 58 58 SSE 10 17 30.39 1029 10 16 0.00 0.00
8:35 pm 20:35 Clear 21 -6 7 -14 54 54 SSE 12 19 30.36 1028 10 16 0.00 0.00
8:55 pm 20:55 Clear 21 -6 7 -14 54 54 S 17 28 30.36 1028 10 16 0.00 0.00
9:15 pm 21:15 Clear 21 -6 7 -14 54 54 S 14 22 30.36 1028 10 16 0.00 0.00
9:35 pm 21:35 Clear 19 -7 9 -13 63 63 S 13 20 30.39 1029 10 16 0.00 0.00
9:55 pm 21:55 Clear 19 -7 9 -13 63 63 S 10 17 30.39 1029 10 16 0.00 0.00
10:15 pm 22:15 Clear 19 -7 9 -13 63 63 S 8 13 30.39 1029 10 16 0.00 0.00
10:35 pm 22:35 Clear 19 -7 9 -13 63 63 S 10 17 30.36 1028 10 16 0.00 0.00
10:55 pm 22:55 Clear 19 -7 9 -13 63 63 S 9 15 30.36 1028 10 16 0.00 0.00
11:15 pm 23:15 Mostly Clear 21 -6 10 -12 63 63 S 10 17 30.33 1027 10 16 0.00 0.00
11:35 pm 23:35 Clear 21 -6 9 -13 58 58 SSW 12 19 30.33 1027 10 16 0.00 0.00
11:55 pm 23:55 Clear 21 -6 9 -13 58 58 SSW 9 15 30.30 1026 10 16 0.00 0.00

Powered by AerisWeather